Location: Samoth
(37.3328°N, 88.7876°W)
Time: 14:36:16
(UTC+00:00)

CZ-4B R/B - Pass Details

Date: 29 October 2020
Orbit: 388 x 461 km, 97.6° (Epoch: 03 December)

Event Time Altitude Azimuth Distance (km) Brightness Sun altitude
Rises 23:23:30 0° 13° (NNE) 2,363 4.8 -5.4°
Reaches altitude 10° 23:25:32 10° 16° (NNE) 1,483 3.7 -5.8°
Maximum altitude 23:28:41 74° 101° (E) 424 1.1 -6.4°
Drops below altitude 10° 23:31:45 10° 187° (S) 1,437 4.2 -7.0°
Sets 23:33:41 0° 190° (S) 2,281 5.3 -7.3°
